Starlink 5191

operational
NORAD ID: 54763 Int'l Des: 2022-175 Owner: SPXS Country: US Constellation: starlink
LEOCIRCULAR

Starlink 5191について

説明を読み込み中...

リアルタイム位置

3D地球を読み込み中...

次回通過

高度履歴

Altitude vs Time

uPlot chart will show altitude changes over time

軌道要素

1 54763U 22175F 25257.33717878 -.00002780 00000-0 -15663-3 0 9990
2 54763 53.2131 115.9503 0000853 136.2715 223.8345 15.08839733153291
Epoch: Sep 14, 2025 • Age: 27 hours

現在のステータス

高度 544.7 km
速度 7.59 km/s
衛星直下点 -16.08°S, 61.57°W
打ち上げ日 Dec 17, 2022
運用期間 2.7 years
タイプ internet

技術仕様

分類 Payload
質量 305.00 kg
乾燥質量 290.00 kg
総質量 305.00 kg
長さ 0.20 m
直径 2.80 m
スパン 9.00 m
形状 Box + pan
製造者 SPXS
バスタイプ Starlink
フェーズステータス In Orbit
所有者/国 SPXS/US

大規模コンステレーション

Loading constellations...